#timestamp,LO_Frequency,Hit,StdDev 
1590554855.5,286046932.8,P
1590554875.4,286046933.4,P
1590554895.2,286046933.5,P
1590554915.1,286046932.1,Y
1590554916.0,286046932.1,P
1590554935.8,286046997.0,P
1590554955.6,286046996.6,N
1590554975.5,286046997.1,N
1590554995.3,286046998.0,N
1590555015.2,286046997.9,N
1590555035.9,286046995.6,N
1590555055.7,286046995.7,N
1590555075.6,286046995.2,N
1590555095.4,286046996.4,N
1590555115.2,286046994.5,N
1590555135.1,286046993.8,N
1590555136.0,286046993.8,N
1590555155.8,286046993.7,N
1590555175.7,286046993.9,N
1590555195.5,286046994.8,N
1590555215.3,286046994.5,N
1590555235.2,286046991.7,N
1590555255.0,286046991.8,N
1590555255.9,286046991.8,N
1590555275.7,286046994.3,N
1590555295.6,286046993.9,N
1590555315.4,286046995.1,N
1590555335.3,286046997.5,N
1590555355.1,286046997.6,N
1590555356.0,286046997.6,N
1590555375.8,286046996.3,N
1590555395.7,286046994.1,N
1590555415.5,286046994.8,N
1590555435.4,286046992.2,N
1590555455.2,286046992.3,N
1590555475.0,286046993.0,Y
1590555475.9,286046993.0,P
1590555495.8,286046997.3,N
1590555515.6,286046995.0,N
1590555535.5,286046995.2,Y
1590555555.3,286046998.6,P
1590555575.1,286046998.7,N
1590555595.9,286046996.5,N
